ONEWEB-0017, 45132

Orbit data source: Space-Track

ONEWEB-0017, 45132 is a payload satellite owned by One Web (UK) in LEO that was launched on Thu, 06 Feb 2020 UTC via a SOYUZ-2-1B launch vehicle from the Tyuratam Missile And Space Complex (TTMTR). Payload-class satellites include a variety of spacecraft equipped with specific instruments for various scientific and technological missions. These include communications satellites like Starlink; space stations such as the ISS; scientific satellites like the Hubble; Earth observation satellites from companies like Planet Labs, Umbra, and HawkEye 360; GPS; miniature CubeSats for education and research; and military/defense satellites.

Loading next visibility...
Identifier
45132, 2020-008B
Orbit
LEO
Last TLE update
22 hours ago
Origin
Manufacturer
One Web
Mission
Operational Commercial Communications
Bus & Motor
ARROW, Unknown motor
Mass
148 kg wet, ~140 kg dry
Launch date (UTC)
2020-02-06 (5 years ago)
Launch vehicle
SOYUZ-2-1B
Launch site
Tyuratam Missile And Space Complex (TTMTR)
Object type
Payload
Rocket body
Debris
Shape & HBR
Trap Box + 2 Pan, 5 m
Radar Cross Section
2.957 m², Large (>1 m²)

Expand to show TLE details & history

TLE from 22 hours ago
0 ONEWEB-0017
1 45132U 20008B   25128.45767952 -.00000762  00000-0 -22197-2 0  9998
2 45132  87.8794 116.9697 0001866  94.2627 265.8713 13.10373727254940
Epoch: 2025-05-08T10:59Z
Definitive object data (Epoch: 2025-05-08T10:59:03.51Z)
Latitude
-0.00008°
Longitude
85.67718°
Altitude
1,224.704 km
Speed
7.242 km/s
True Right ascension
07h 47m 52s
True Declination
0° 00' 00"
Sunlit
Object was in daylight at TLE epoch
Visualization TLE readout
Latitude
39.85538°
Longitude
87.25527°
Altitude
1,226.519 km
Speed
7.245 km/s
Apparent Right ascension
06h 44m 06s
Apparent Declination
4° 24' 04"
Sunlit
Object is in daylight
Visualization observer readout
Local Sidereal Time
17:19:55
Azimuth
331.37° NNW
Elevation
-41.641°
Doppler factor
1
Orbital elements
Apogee altitude
1,220.251 km
Perigee altitude
1,217.416 km
Semi-major axis
7,596.97 km
Eccentricity
0.0001866
Inclination
87.8794°
RAAN
116.9697°
Arg. of periapsis
94.2627°
True anomaly
265.84997°
Mean anomaly
265.8713°
Eccentric anomaly
265.86064°
Mean motion
3.2778 °/min
BSTAR
-0.0022197
Orbital period
109.83 mins
Loading maneuver chart data...
Loading SW <> Apogee altitude chart data...
Loading historical data...
Loading historical data...
Loading historical data...
Loading historical data...
Loading historical data...
Loading historical data...
Loading historical data...

ONEWEB-0017 Visibility forecast

Observer location: undefined°, undefined°

Span
Click to sort rows by Start time (UTC) header in descending order
Start Az.
Max El. time (UTC)
Max El. Az.
Max El.
End time (UTC)
End Az.
7 mins2025-05-09 09:36:38.378Z41.15° NE2025-05-09 09:40:38.378Z75.568° E14.708°2025-05-09 09:43:38.378Z101.126° ESE
12 mins2025-05-09 11:25:38.378Z359.218° N2025-05-09 11:31:38.378Z187.586° SSW44.648°2025-05-09 11:37:38.378Z182.072° SSW
6 mins2025-05-09 13:17:38.378Z310.166° NW2025-05-09 13:19:38.378Z292.802° NW14.305°2025-05-09 13:23:38.378Z258.968° W
7 mins2025-05-09 21:58:38.378Z97.39° ESE2025-05-09 22:01:38.378Z69.188° E16.78°2025-05-09 22:05:38.378Z35.406° NE
13 mins2025-05-09 23:44:38.378Z184.639° SSW2025-05-09 23:50:38.378Z303.974° NW44.401°2025-05-09 23:57:38.378Z358.523° N
4 mins2025-05-10 01:39:38.378Z274.375° WNW2025-05-10 01:41:38.378Z291.291° WNW12.411°2025-05-10 01:43:38.378Z308.011° NW
|